Home > Weather > Male > Past weeks

Flag for Maldives Weather for the Past 2 Weeks in Male, Maldives

Now
82 °F

Passing clouds.


Feels Like: 89 °F
Forecast: 82 / 89 °F
Wind: 7 mph from East

Location: Male Airport

Current Time: Feb 9, 2016 at 4:47:50 AM

Latest Report: Feb 9, 2016 at 3:00 AM


Visibility: 6 mi

Pressure: 29.86 "Hg

Humidity: 79%

Dew point: 75 °F

Location of MaleLocation

Historic Weather in Male — Graph

°F

Male Temperature Yesterday

Maximum temperature yesterday: 90 °F (at 1:00 PM)
Minimum temperature yesterday: 82 °F (at 1:00 AM)
Average temperature yesterday: 85 °F

High & Low Weather Summary for the Past Weeks

 TemperatureHumidityPressure
High90 °F (Jan 25, 11:00 AM)94% (Jan 25, 8:00 PM)29.98 "Hg (Jan 25, 8:00 PM)
Low75 °F (Jan 29, 2:00 AM)15% (Feb 7, 2:00 PM)29.80 "Hg (Jan 31, 3:00 PM)
Average85 °F72%29.89 "Hg
* Reported Jan 25 3:00 AM — Feb 9 3:00 AM, Male, Weather by CustomWeather, © 2016

Note: Actual official high and low records may vary slightly from our data, if they occured in-between our weather recording intervals... More about our weather records

Advertising

Male Weather History for the Previous 24 Hours

 ConditionsComfort  
Time TempWeatherWind HumidityBarometerVisibility
3:00 AM
Tue, Feb 9
82 °FPassing clouds.7 mph79%29.86 "Hg6 mi
2:00 AM82 °FPassing clouds.6 mph79%29.86 "Hg6 mi
1:00 AM82 °FPassing clouds.8 mph79%29.89 "Hg6 mi
12:00 AM84 °FPassing clouds.8 mph74%29.92 "Hg6 mi
11:00 PM
Mon, Feb 8
84 °FPassing clouds.8 mph74%29.92 "Hg6 mi
10:00 PM84 °FPassing clouds.9 mph74%29.92 "Hg6 mi
9:00 PM84 °FPassing clouds.9 mph79%29.92 "Hg6 mi
8:00 PM84 °FPassing clouds.9 mph74%29.89 "Hg6 mi
7:00 PM84 °FPassing clouds.9 mph74%29.89 "Hg6 mi
6:00 PM86 °FScattered clouds.7 mph70%29.86 "Hg6 mi
5:00 PM86 °FPartly sunny.9 mph70%29.86 "Hg6 mi
4:00 PM88 °FScattered clouds.9 mph66%29.83 "Hg6 mi
3:00 PM88 °FScattered clouds.9 mph66%29.83 "Hg6 mi
2:00 PM90 °FScattered clouds.9 mph63%29.83 "Hg6 mi
1:00 PM90 °FScattered clouds.10 mph63%29.86 "Hg6 mi
12:00 PM88 °FPartly sunny.7 mph66%29.89 "Hg6 mi
11:00 AM88 °FPartly sunny.8 mph66%29.92 "HgN/A
10:00 AM88 °FPartly sunny.7 mph66%29.95 "Hg5 mi
9:00 AM86 °FPartly sunny.8 mph75%29.92 "Hg5 mi
8:00 AM84 °FPartly sunny.7 mph74%29.89 "Hg5 mi
7:00 AM82 °FPartly sunny.7 mph79%29.86 "Hg6 mi
6:00 AM82 °FPartly cloudy.10 mph79%29.86 "Hg6 mi
5:00 AM82 °FPassing clouds.8 mph79%29.83 "Hg5 mi
4:00 AM82 °FPassing clouds.8 mph79%29.83 "Hg5 mi
Weather by CustomWeather, © 2016

See weather overviewHow to use our weather pages